Location: Spring Creek
(38.2870°N, 100.2160°W)
Time: 03:47:40
(UTC+00:00)

ALOS - Pass Details

Date: 08 May 2021
Orbit: 682 x 685 km, 97.9° (Epoch: 18 June)

Event Time Altitude Azimuth Distance (km) Brightness Sun altitude
Rises 10:16:42 0° 21° (NNE) 3,053 6.6 -14.4°
Reaches altitude 10° 10:19:06 10° 30° (NNE) 2,133 5.9 -14.0°
Maximum altitude 10:23:24 36° 97° (E) 1,078 3.7 -13.3°
Drops below altitude 10° 10:27:40 10° 164° (SSE) 2,118 4.6 -12.6°
Sets 10:30:03 0° 173° (S) 3,028 5.3 -12.2°
